星链-32259 (STARLINK-32259)

导读 | 豆包AI

STARLINK-32259是美国SpaceX星链星座中的一颗卫星,于2024年8月31日08:00发射升空,属于美国SpaceX公司打造的低轨互联网卫星星座项目的组成部分,主要服务于全球范围的高速卫星互联网接入,为偏远地区、海洋等网络覆盖薄弱区域提供网络连接服务。

基本信息
目录编号:
60937
目录名称:
STARLINK-32259
国际标识:
2024-155P
轨道中心:
EARTH
卫星名称:
星链-32259
卫星全名:
星链-32259 (STARLINK-32259)
卫星状态:
在轨 (已飞行608 天)
发射日期:
2024-08-31 UTC
国别 :
美国 (US)
星等 :
--
轨道信息
数据来源 国际轨道数据 AOE轨道数据
星历时间 2026-04-30T23:33:38+0800
8小时前
查看轨道信息
2026-04-26T08:00:00+0800
5天前
查看轨道信息
半长轴 6853.372km 6853.354km
偏心率 0.0001045 0.0001621
轨道倾角 53.160° 53.160°
近地点辐角 78.981° 95.015°
升交点赤经 248.492° 270.085°
平近点角 281.131° 204.507°
近地点 474.518km 474.106km
远地点 475.952km 476.328km
周期 94.106分钟 94.105分钟
每日圈数 15.301936 15.301995
详细信息
固有亮度:
5
最大亮度:
2.5
卫星平台:
Starlink V1.0
覆盖范围:
全球
运营商:
太空探索技术公司
运营商所在国:
美国
制造商(研发单位):
太空探索技术公司
制造商所在国:
美国
使用方式:
暂无
卫星简介
Starlink 计划是 SpaceX 推出的全球卫星互联网项目,通过发射低轨道卫星,为全球尤其是偏远地区提供高速、低延迟的互联网服务。自 2019 年起,Starlink 已部署数千颗卫星,旨在缩小全球数字鸿沟,推动互联网普及。该项目还为军事、航空等行业提供通信支持,带来广泛经济效益。
2D轨道图
3D轨道图
轨道高度分析图
轨道倾角分析图
轨道综合分析图
查看轨道综合分析图